GW3210 Weather Reports


Display with metric or nautical units.
time (UTC)temp
F
wind
direction
speed
MPH
gust
MPH
rain 1hr
in
rain 24hr
in
rain mn
in
humidity
%
barometer
mb
20260507085116 51 293 3.0 3.0 0.00 0.00 0.00 63 1023.2
20260507084116 52 293 4.0 6.0 0.00 0.00 0.00 63 1023.1
20260507083116 52 293 4.0 7.0 0.00 0.00 0.00 63 1023.2
20260507082116 52 293 4.0 7.0 0.00 0.00 0.00 63 1023.2
20260507081216 52 293 4.0 5.0 0.00 0.00 0.00 63 1023.2
20260507080115 52 293 4.0 6.0 0.00 0.00 0.00 63 1023.2
20260507075115 52 315 4.0 7.0 0.00 0.00 0.00 63 1023.2
20260507074137 52 293 3.0 3.0 0.00 0.00 0.00 63 1023.2
20260507073115 52 315 4.0 10.0 0.00 0.00 0.00 63 1023.1
20260507072116 52 293 4.0 8.0 0.00 0.00 0.00 63 1023.0
20260507071116 52 315 4.0 8.0 0.00 0.00 0.00 63 1022.9
20260507070115 52 315 4.0 7.0 0.00 0.00 0.00 63 1022.9
20260507065116 52 315 4.0 7.0 0.00 0.00 0.00 63 1022.9
20260507064136 52 293 4.0 7.0 0.00 0.00 0.00 63 1022.9
20260507063116 52 315 4.0 6.0 0.00 0.00 0.00 63 1023.0
20260507062118 52 338 3.0 5.0 0.00 0.00 0.00 63 1022.9
20260507061116 52 293 7.0 10.0 0.00 0.00 0.00 62 1022.9
20260507060137 53 338 4.0 7.0 0.00 0.00 0.00 62 1022.9
20260507055116 53 315 8.0 13.0 0.00 0.00 0.00 62 1022.8
20260507054116 53 293 6.0 9.0 0.00 0.00 0.00 62 1022.8
20260507053116 53 315 7.0 10.0 0.00 0.00 0.00 62 1022.9
20260507052157 53 338 5.0 9.0 0.00 0.00 0.00 62 1022.8
20260507051116 53 315 3.0 4.0 0.00 0.00 0.00 62 1022.9
20260507050116 54 0 5.0 10.0 0.00 0.00 0.00 61 1022.9
20260507045116 54 293 6.0 11.0 0.00 0.00 0.00 60 1022.8
20260507044116 54 338 6.0 9.0 0.00 0.00 0.00 60 1022.8
20260507043116 55 338 3.0 5.0 0.00 0.00 0.00 60 1022.8
20260507042115 55 338 9.0 13.0 0.00 0.00 0.00 60 1022.8
20260507041117 55 338 8.0 11.0 0.00 0.00 0.00 59 1022.7
20260507040116 56 0 10.0 13.0 0.00 0.00 0.00 59 1022.8
20260507035116 56 338 9.0 11.0 0.00 0.00 0.00 59 1022.6
20260507034116 56 315 10.0 15.0 0.00 0.00 0.00 59 1022.4
20260507033116 57 315 5.0 9.0 0.00 0.00 0.00 59 1022.3
20260507032115 57 338 5.0 8.0 0.00 0.00 0.00 59 1022.1
20260507031116 58 315 7.0 12.0 0.00 0.00 0.00 59 1022.0
20260507030116 58 338 6.0 10.0 0.00 0.00 0.00 59 1021.8
20260507025116 59 338 4.0 6.0 0.00 0.00 0.00 59 1021.8
20260507024116 59 315 8.0 12.0 0.00 0.00 0.00 58 1021.7
20260507023116 60 293 6.0 11.0 0.00 0.00 0.00 57 1021.8
20260507022115 60 293 6.0 9.0 0.00 0.00 0.00 57 1021.7
20260507021136 60 315 5.0 8.0 0.00 0.00 0.00 57 1021.8
20260507020116 61 315 4.0 5.0 0.00 0.00 0.00 56 1021.8
20260507015116 61 293 6.0 11.0 0.00 0.00 0.00 56 1021.9
20260507014115 61 315 7.0 11.0 0.00 0.00 0.00 55 1022.1
20260507013115 62 338 6.0 10.0 0.00 0.00 0.00 55 1022.1
20260507012115 62 315 8.0 12.0 0.00 0.00 0.00 54 1022.1
20260507011116 63 338 4.0 7.0 0.00 0.00 0.00 54 1022.2
20260507010115 63 315 6.0 11.0 0.00 0.00 0.00 54 1022.2
20260507005115 64 0 4.0 8.0 0.00 0.00 0.00 53 1022.1
20260507004115 65 45 2.0 5.0 0.00 0.00 0.00 54 1022.1
20260507003115 65 293 3.0 4.0 0.00 0.00 0.00 54 1022.1
20260507002115 65 23 2.0 4.0 0.00 0.00 0.00 55 1022.1
20260507001116 65 23 2.0 4.0 0.00 0.00 0.00 55 1022.1
20260507000115 65 338 3.0 4.0 0.00 0.00 0.00 55 1022.2
20260506235115 65 293 3.0 5.0 0.00 0.00 0.00 54 1022.1
20260506234135 66 315 2.0 4.0 0.00 0.00 0.00 53 1022.1
20260506233118 66 293 3.0 4.0 0.00 0.00 0.00 52 1022.1
20260506232117 67 270 4.0 6.0 0.00 0.00 0.00 51 1022.1
20260506231117 67 338 1.0 2.0 0.00 0.00 0.00 52 1022.1
20260506230117 66 293 2.0 4.0 0.00 0.00 0.00 53 1022.2
20260506225118 65 293 2.0 4.0 0.00 0.00 0.00 53 1022.3
20260506224118 65 315 2.0 5.0 0.00 0.00 0.00 53 1022.3
20260506223137 65 338 4.0 6.0 0.00 0.00 0.00 54 1022.5
20260506222118 65 338 2.0 4.0 0.00 0.00 0.00 53 1022.6
20260506221138 65 338 2.0 2.0 0.00 0.00 0.00 53 1022.6
20260506220117 64 0 2.0 3.0 0.00 0.00 0.00 55 1022.6
20260506215118 64 23 1.0 3.0 0.00 0.00 0.00 54 1022.7
20260506214138 65 23 1.0 2.0 0.00 0.00 0.00 52 1022.6
20260506213137 66 23 2.0 3.0 0.00 0.00 0.00 55 1022.7
20260506212138 65 68 1.0 4.0 0.00 0.00 0.00 53 1023.1
20260506211117 64 270 2.0 3.0 0.00 0.00 0.00 56 1023.1
20260506210137 63 315 2.0 4.0 0.00 0.00 0.00 56 1023.1
20260506205117 63 248 3.0 6.0 0.00 0.00 0.00 56 1023.1
20260506204117 63 338 4.0 7.0 0.00 0.00 0.00 57 1023.0
20260506203117 63 293 2.0 4.0 0.00 0.00 0.00 56 1023.0
20260506202117 62 158 1.0 2.0 0.00 0.00 0.00 57 1023.0
20260506201117 62 270 2.0 4.0 0.00 0.00 0.00 56 1023.0
20260506200117 61 293 3.0 6.0 0.00 0.00 0.00 57 1023.1
20260506195138 61 315 1.0 2.0 0.00 0.00 0.00 58 1023.2
20260506194117 61 225 2.0 3.0 0.00 0.00 0.00 57 1023.2
20260506193158 61 270 3.0 4.0 0.00 0.00 0.00 57 1023.2
20260506192117 61 293 4.0 7.0 0.00 0.00 0.00 57 1023.1
20260506191116 61 270 5.0 7.0 0.00 0.00 0.00 57 1023.1
20260506190118 61 338 2.0 3.0 0.00 0.00 0.00 59 1023.0
20260506185137 60 315 2.0 4.0 0.00 0.00 0.00 58 1023.1
20260506184138 60 270 3.0 4.0 0.00 0.00 0.00 57 1023.0
20260506183116 60 338 1.0 2.0 0.00 0.00 0.00 59 1022.8
20260506182117 59 315 2.0 4.0 0.00 0.00 0.00 59 1023.1
20260506181117 59 293 3.0 6.0 0.00 0.00 0.00 60 1023.1
20260506180117 58 315 2.0 3.0 0.00 0.00 0.00 59 1023.0
20260506175117 59 315 2.0 4.0 0.00 0.00 0.00 59 1023.0
20260506174117 59 338 2.0 3.0 0.00 0.00 0.00 59 1022.8
20260506173117 59 338 3.0 4.0 0.00 0.00 0.00 59 1022.6
20260506172117 58 293 2.0 3.0 0.00 0.00 0.00 60 1022.7
20260506171117 58 315 2.0 3.0 0.00 0.00 0.00 60 1022.7
20260506170117 57 338 4.0 6.0 0.00 0.00 0.00 61 1022.6
20260506165117 57 315 3.0 5.0 0.00 0.00 0.00 61 1022.8
20260506164117 57 270 3.0 5.0 0.00 0.00 0.00 60 1022.7
20260506163117 57 0 4.0 7.0 0.00 0.00 0.00 61 1022.8
20260506162117 57 315 3.0 5.0 0.00 0.00 0.00 62 1022.5
20260506161116 56 315 2.0 3.0 0.00 0.00 0.00 62 1022.3
20260506160116 56 0.0 2.0 0.00 0.00 0.00 63 1022.1
20260506155136 55 158 1.0 2.0 0.00 0.00 0.00 64 1021.8
20260506154117 54 0 2.0 3.0 0.00 0.00 0.00 65 1021.9
20260506153117 54 315 3.0 4.0 0.00 0.00 0.00 65 1022.3
20260506152116 54 293 3.0 6.0 0.00 0.00 0.00 66 1022.5
20260506151117 53 293 5.0 8.0 0.00 0.00 0.00 66 1022.7
20260506150117 53 315 6.0 9.0 0.00 0.00 0.00 66 1022.5
20260506145116 53 338 6.0 9.0 0.00 0.00 0.00 66 1022.3
20260506144137 53 293 4.0 6.0 0.00 0.00 0.00 66 1022.3
20260506143117 54 315 4.0 8.0 0.00 0.00 0.00 66 1022.1
20260506142116 54 0 4.0 6.0 0.00 0.00 0.00 66 1021.9
20260506141117 54 338 3.0 4.0 0.00 0.00 0.00 66 1021.8
20260506140116 54 293 2.0 4.0 0.00 0.00 0.00 66 1021.9
20260506135117 54 293 4.0 5.0 0.00 0.00 0.00 66 1021.7
20260506134116 54 0 3.0 5.0 0.00 0.00 0.00 66 1021.7
20260506133116 54 315 1.0 3.0 0.00 0.00 0.00 66 1021.7
20260506132116 54 293 2.0 2.0 0.00 0.00 0.00 66 1021.4
20260506131116 54 293 1.0 1.0 0.00 0.00 0.00 66 1021.2
20260506130136 54 293 1.0 1.0 0.00 0.00 0.00 67 1021.2
20260506125116 54 293 2.0 3.0 0.00 0.00 0.00 66 1021.0
20260506124137 54 315 1.0 2.0 0.00 0.00 0.00 66 1021.1
20260506123116 54 0.0 1.0 0.00 0.00 0.00 66 1021.0
20260506122116 54 315 4.0 6.0 0.00 0.00 0.00 66 1021.1
20260506121116 54 293 2.0 4.0 0.00 0.00 0.00 66 1021.0
20260506120117 54 293 4.0 6.0 0.00 0.00 0.00 66 1021.0
20260506115116 54 293 3.0 3.0 0.00 0.00 0.00 66 1020.8
20260506114116 54 293 3.0 4.0 0.00 0.00 0.00 66 1020.7
20260506113116 54 315 4.0 7.0 0.00 0.00 0.00 66 1020.6
20260506112116 54 315 3.0 7.0 0.00 0.00 0.00 66 1020.6
20260506111116 54 315 4.0 5.0 0.00 0.00 0.00 66 1020.6
20260506110117 54 315 4.0 5.0 0.00 0.00 0.00 66 1020.4
20260506105116 54 315 4.0 5.0 0.00 0.00 0.00 66 1020.3
20260506104116 54 315 3.0 4.0 0.00 0.00 0.00 66 1020.1
20260506103116 55 293 3.0 4.0 0.00 0.00 0.00 66 1020.1
20260506102116 55 293 3.0 4.0 0.00 0.00 0.00 66 1020.0
20260506101116 55 270 3.0 6.0 0.00 0.00 0.00 65 1019.9
20260506100117 55 293 3.0 6.0 0.00 0.00 0.00 65 1019.9
20260506095115 55 315 3.0 4.0 0.00 0.00 0.00 66 1019.8
20260506094116 55 293 2.0 3.0 0.00 0.00 0.00 65 1019.8
20260506093116 55 315 2.0 3.0 0.00 0.00 0.00 65 1019.8
20260506092116 55 270 3.0 4.0 0.00 0.00 0.00 65 1019.7
20260506091116 55 315 4.0 5.0 0.00 0.00 0.00 65 1019.7
20260506090116 55 315 3.0 4.0 0.00 0.00 0.00 65 1019.7